Spokane Fairchild, WA
on Thursday, January 31, 2013

Thursday
Previous Day Next Day
Daily Summary
 ActualAverage (KGEG)Record (KGEG)
Temperature
Mean Temperature °F 31°F  
Max Temperature 37°F 37°F 58°F (1971)
Min Temperature 32°F 26°F -21°F (1950)
Degree Days
Heating Degree Days 30 34  
Month to date heating degree days 1099  
Since 1 July heating degree days 3933  
Cooling Degree Days 0 0  
Month to date cooling degree days 0  
Year to date cooling degree days 0  
Moisture
Dew Point 34°F   
Average Humidity 99    
Maximum Humidity 100    
Minimum Humidity 81    
Precipitation
Precipitation 0.00 in 0.05 in 0.74 in (1963)
Month to date precipitation 1.79  
Year to date precipitation 1.79  
Snow
Snow 0.00 in 0.30 in 8.60 in (1932)
Month to date snowfall 11.4  
Since 1 July snowfall 33.5  
Snow Depth 2.00 in   
Wind
Wind Speed 8 mph   
Max Wind Speed 14 mph   
Max Gust Speed mph   
Visibility 4 miles   
Events Fog , Rain   

Key: T is trace of precipitation, MM is missing value
Source: NWS Daily Summary
Time(PST)TemperatureDew PointHumidity Pressure Visibility Wind DirectionWind SpeedGust SpeedPrecipitationEvents Conditions
12:03 AM 32.0°F 32.0°F 100% 30.20 in 4.0 miles SSW 6.9 mph - N/A   Overcast
12:14 AM 32.0°F 32.0°F 100% 30.20 in 7.0 miles South 6.9 mph - N/A   Overcast
12:15 AM 32.0°F 32.0°F 100% 30.20 in 5.0 miles South 5.8 mph - N/A   Overcast
12:20 AM 32.0°F 32.0°F 100% 30.20 in 1.5 miles South 6.9 mph - N/A   Overcast
12:24 AM 32.0°F 32.0°F 100% 30.20 in 0.8 miles SSE 6.9 mph - N/A   Overcast
12:44 AM 32.0°F 32.0°F 100% 30.20 in 0.5 miles South 8.1 mph - N/A Fog Fog
12:58 AM 32.0°F 32.0°F 100% 30.28 in 0.5 miles South 8.1 mph - 0.00 in Fog Fog
1:18 AM 32.0°F 32.0°F 100% 30.21 in 0.5 miles South 6.9 mph - N/A Fog Fog
1:28 AM 32.0°F 32.0°F 100% 30.21 in 0.5 miles South 6.9 mph - N/A Fog Fog
1:58 AM 32.0°F 32.0°F 100% 30.28 in 0.5 miles South 5.8 mph - N/A Fog Fog
2:03 AM 32.0°F 32.0°F 100% 30.21 in 0.8 miles South 8.1 mph - N/A   Mist
2:08 AM 32.0°F 32.0°F 100% 30.21 in 0.8 miles South 8.1 mph - N/A   Mist
2:18 AM 32.0°F 32.0°F 100% 30.21 in 1.0 miles South 9.2 mph - N/A   Mist
2:23 AM 32.0°F 32.0°F 100% 30.21 in 1.0 miles South 9.2 mph - N/A   Mist
2:24 AM 32.0°F 32.0°F 100% 30.21 in 1.0 miles South 9.2 mph - N/A   Unknown
2:40 AM 32.0°F 32.0°F 100% 30.21 in 1.0 miles South 8.1 mph - N/A   Mist
2:45 AM 32.0°F 32.0°F 100% 30.21 in 1.0 miles South 5.8 mph - N/A   Mist
2:50 AM 32.0°F 32.0°F 100% 30.21 in 1.0 miles South 8.1 mph - N/A   Mist
2:58 AM 32.0°F 32.0°F 100% 30.28 in 1.0 miles South 10.4 mph - 0.00 in   Mist
3:03 AM 32.0°F 32.0°F 100% 30.21 in 1.0 miles South 11.5 mph - N/A   Mist
3:08 AM 32.0°F 32.0°F 100% 30.21 in 1.0 miles South 9.2 mph - N/A   Mist
3:13 AM 32.0°F 32.0°F 100% 30.21 in 0.8 miles South 10.4 mph - N/A   Mist
3:38 AM 32.0°F 32.0°F 100% 30.21 in 1.0 miles SSW 9.2 mph - N/A   Mist
3:43 AM 32.0°F 32.0°F 100% 30.21 in 1.2 miles SSW 10.4 mph - N/A   Overcast
3:58 AM 32.0°F 32.0°F 100% 30.28 in 1.5 miles SSW 9.2 mph - N/A   Overcast
4:01 AM 32.0°F 32.0°F 100% 30.21 in 1.8 miles SSW 9.2 mph - N/A   Overcast
4:11 AM 32.0°F 32.0°F 100% 30.21 in 1.5 miles SSW 10.4 mph - N/A   Overcast
4:16 AM 33.8°F 32.0°F 93% 30.21 in 1.5 miles SSW 9.2 mph - N/A   Light Drizzle
4:21 AM 32.0°F 32.0°F 100% 30.21 in 1.8 miles SSW 9.2 mph - N/A   Light Drizzle
4:26 AM 32.0°F 32.0°F 100% 30.21 in 2.5 miles SSW 8.1 mph - N/A   Light Drizzle
4:31 AM 32.0°F 32.0°F 100% 30.21 in 4.0 miles SW 9.2 mph - N/A   Light Drizzle
4:39 AM 32.0°F 32.0°F 100% 30.21 in 5.0 miles SSW 6.9 mph - N/A   Haze
4:58 AM 33.8°F 32.0°F 93% 30.28 in 3.0 miles South 4.6 mph - 0.00 in   Overcast
5:20 AM 32.0°F 32.0°F 100% 30.21 in 4.0 miles SSE 3.5 mph - N/A Rain Light Rain
5:30 AM 32.0°F 32.0°F 100% 30.21 in 1.8 miles South 4.6 mph - N/A Rain Light Rain
5:39 AM 32.0°F 32.0°F 100% 30.21 in 2.0 miles South 4.6 mph - N/A   Overcast
5:44 AM 32.0°F 32.0°F 100% 30.21 in 3.0 miles South 4.6 mph - N/A   Overcast
5:58 AM 32.0°F 32.0°F 100% 30.29 in 3.0 miles SE 2.3 mph - 0.00 in   Overcast
6:13 AM 32.0°F 32.0°F 100% 30.21 in 2.5 miles South 3.5 mph - N/A   Overcast
6:18 AM 32.0°F 32.0°F 100% 30.21 in 1.8 miles South 3.5 mph - N/A   Overcast
6:23 AM 32.0°F 32.0°F 100% 30.21 in 1.0 miles South 4.6 mph - N/A   Mist
6:28 AM 32.0°F 32.0°F 100% 30.22 in 0.8 miles South 4.6 mph - N/A   Mist
6:43 AM 32.0°F 32.0°F 100% 30.21 in 0.5 miles South 4.6 mph - N/A Fog Fog
6:53 AM 32.0°F 32.0°F 100% 30.21 in 0.5 miles South 6.9 mph - N/A Fog Fog
6:58 AM 32.0°F 32.0°F 100% 30.28 in 0.5 miles South 5.8 mph - N/A Fog Fog
6:59 AM 32.0°F 32.0°F 100% 30.21 in 0.2 miles South 4.6 mph - N/A   Unknown
7:04 AM 32.0°F 32.0°F 100% 30.21 in 0.2 miles South 4.6 mph - N/A   Unknown
7:09 AM 32.0°F 32.0°F 100% 30.21 in 0.2 miles South 4.6 mph - N/A   Unknown
7:14 AM 32.0°F 32.0°F 100% 30.21 in 0.2 miles South 4.6 mph - N/A Fog Fog
7:19 AM 32.0°F 32.0°F 100% 30.21 in 0.2 miles South 4.6 mph - N/A Fog Fog
7:24 AM 33.8°F 33.8°F 100% 30.21 in 0.1 miles South 5.8 mph - N/A Fog Fog
7:29 AM 33.8°F 33.8°F 100% 30.21 in 0.2 miles South 5.8 mph - N/A   Unknown
7:58 AM 33.8°F 33.8°F 100% 30.30 in 0.2 miles South 3.5 mph - N/A Fog Fog
8:58 AM 35.6°F 35.6°F 100% 30.30 in 0.2 miles South 8.1 mph - N/A Fog Fog
9:18 AM 35.6°F 35.6°F 100% 30.22 in 0.2 miles South 9.2 mph - N/A Fog Fog
9:28 AM 35.6°F 35.6°F 100% 30.22 in 0.2 miles South 8.1 mph - N/A   Unknown
9:38 AM 35.6°F 35.6°F 100% 30.22 in 0.2 miles South 10.4 mph - N/A Fog Fog
9:43 AM 35.6°F 35.6°F 100% 30.22 in 0.2 miles South 11.5 mph - N/A Fog Fog
9:58 AM 35.6°F 35.6°F 100% 30.30 in 0.5 miles SSW 12.7 mph - N/A   Unknown
10:03 AM 35.6°F 35.6°F 100% 30.22 in 0.8 miles SSW 10.4 mph - N/A   Unknown
10:08 AM 35.6°F 35.6°F 100% 30.22 in 2.0 miles SSW 10.4 mph - N/A   Overcast
10:18 AM 35.6°F 35.6°F 100% 30.23 in 4.0 miles SW 5.8 mph - N/A   Overcast
10:23 AM 35.6°F 35.6°F 100% 30.23 in 7.0 miles SW 4.6 mph - N/A   Overcast
10:58 AM 35.6°F 35.6°F 100% 30.30 in 10.0 miles SSW 10.4 mph - N/A   Overcast
11:23 AM 35.6°F 35.6°F 100% 30.22 in 10.0 miles SSW 11.5 mph - N/A   Overcast
11:33 AM 35.6°F 35.6°F 100% 30.22 in 10.0 miles SSW 6.9 mph - N/A   Overcast
11:58 AM 37.4°F 35.6°F 93% 30.28 in 10.0 miles SSW 9.2 mph - N/A   Overcast
12:23 PM 35.6°F 35.6°F 100% 30.21 in 10.0 miles SSW 9.2 mph - N/A   Overcast
12:58 PM 37.4°F 32.0°F 81% 30.28 in 10.0 miles SSW 6.9 mph - 0.00 in   Overcast
1:28 PM 35.6°F 35.6°F 100% 30.20 in 10.0 miles SSW 9.2 mph - N/A   Overcast
1:58 PM 37.4°F 37.4°F 100% 30.27 in 10.0 miles SSW 5.8 mph - N/A   Overcast
2:03 PM 37.4°F 37.4°F 100% 30.19 in 10.0 miles SSW 5.8 mph - N/A   Overcast
2:08 PM 37.4°F 37.4°F 100% 30.20 in 10.0 miles SSW 9.2 mph - N/A   Overcast
2:23 PM 37.4°F 37.4°F 100% 30.19 in 10.0 miles SSW 10.4 mph - N/A   Mostly Cloudy
2:58 PM 37.4°F 37.4°F 100% 30.27 in 10.0 miles SSW 10.4 mph - N/A   Mostly Cloudy
3:50 PM 37.4°F 37.4°F 100% 30.20 in 10.0 miles SSW 5.8 mph - N/A   Overcast
3:58 PM 37.0°F 37.0°F 100% 30.26 in 10.0 miles SW 6.9 mph - 0.00 in Rain Light Rain
4:06 PM 37.4°F 37.4°F 100% 30.19 in 10.0 miles SSW 6.9 mph - N/A   Overcast
4:18 PM 37.4°F 37.4°F 100% 30.19 in 10.0 miles South 8.1 mph - N/A   Mostly Cloudy
4:48 PM 37.4°F 37.4°F 100% 30.18 in 10.0 miles South 9.2 mph - N/A   Overcast
4:58 PM 36.5°F 36.5°F 100% 30.24 in 10.0 miles South 9.2 mph - 0.00 in   Overcast
5:35 PM 37.4°F 37.4°F 100% 30.17 in 10.0 miles SSE 3.5 mph - N/A   Overcast
5:58 PM 36.9°F 36.9°F 100% 30.24 in 10.0 miles SSW 2.3 mph - 0.00 in   Light Drizzle
6:06 PM 37.4°F 37.4°F 100% 30.17 in 10.0 miles SSW 4.6 mph - N/A   Overcast
6:58 PM 36.0°F 36.0°F 100% 30.22 in 10.0 miles SSE 5.8 mph - 0.00 in   Overcast
7:55 PM 37.4°F 35.6°F 93% 30.23 in 10.0 miles SW 6.9 mph - N/A   Scattered Clouds
8:55 PM 35.6°F 33.8°F 93% 30.20 in 10.0 miles SSW 9.2 mph - N/A   Clear
9:55 PM 36.5°F 36.3°F 99% 30.20 in 10.0 miles SSW 13.8 mph - N/A   Overcast
10:48 PM 35.6°F 35.6°F 100% 30.15 in 10.0 miles SW 13.8 mph - N/A   Overcast
10:58 PM 35.1°F 35.1°F 100% 30.22 in 10.0 miles SSW 12.7 mph - 0.00 in   Overcast
10:59 PM 35.6°F 35.6°F 100% 30.15 in 10.0 miles SSW 12.7 mph - N/A   Overcast
11:18 PM 33.8°F 33.8°F 100% 30.15 in 10.0 miles SW 12.7 mph - N/A   Mostly Cloudy
11:34 PM 33.8°F 33.8°F 100% 30.15 in 10.0 miles SW 12.7 mph - N/A   Clear
11:38 PM 33.8°F 33.8°F 100% 30.15 in 10.0 miles SW 11.5 mph - N/A   Clear
11:58 PM 33.8°F 33.8°F 100% 30.23 in 10.0 miles WSW 8.1 mph - 0.00 in   Clear
Moon Phase
Jan. 31 Feb. 03 Feb. 10 Feb. 17 Feb. 25
Sunrise:07:18 AM (PST) Moon Rise:10:25 PM (PST)1/31
Sunset:04:50 PM (PST) Moon Set:08:55 AM (PST)1/31

Copyright © 2014 The Weather Underground, Inc.